Showing default

KUIPER-00177, 67766

Orbit data source: Space-Track

KUIPER-00177, 67766 is a payload satellite owned by Kuiper Systems (US) in LEO that was launched on Thu, 12 Feb 2026 UTC via an ARIANE 64 launch vehicle from the French Guiana (FRGUI). Payload-class satellites include a variety of spacecraft equipped with specific instruments for various scientific and technological missions. These include communications satellites like Starlink; space stations such as the ISS; scientific satellites like the Hubble; Earth observation satellites from companies like Planet Labs, Umbra, and HawkEye 360; GPS; miniature CubeSats for education and research; and military/defense satellites.

Loading next visibility...
Identifier
67766, 2026-030C
Orbit
LEO
Country
Flag of USUS
Related business
Manufacturer
Kuiper Systems
Mission
Operational Commercial Communications
Bus & Motor
KUIPER, Unknown motor
Mass
~490 kg wet, ~490 kg dry
Launch date (UTC)
2026-02-12 (4 months ago)
Launch vehicle
ARIANE 64
Launch site
French Guiana (FRGUI)
Object type
Payload
Rocket body
Debris
Shape & HBR
Box + 2 Pan, 3.4 m
Radar Cross Section
2.326 m², Large (>1 m²)

Expand to show TLE details & history
Last TLE update: 1 day ago

TLE from 1 day ago
0 KUIPER-00177
1 67766U 26030C   26170.85826849  .00000545  00000-0  10055-3 0  9997
2 67766  51.9009 121.3343 0000770  77.7233 282.3816 14.79933498 20300
Epoch: 2026-06-19T20:35Z
TLE epoch observation values (Epoch: 2026-06-19T20:35:54.397Z)
Latitude
0.00001°
Longitude
-95.72356°
Altitude
630.165 km
Speed
7.545 km/s
True Right ascension
08h 05m 20s
True Declination
0° 00' 00"
Sunlit
Object was in daylight at epoch
Visualization orbit readout
Latitude
Unknown
Longitude
Unknown
Altitude
Unknown
Speed
Unknown
Apparent Right ascension
Unknown
Apparent Declination
Unknown
Sunlit
N/A
Visualization observer readout
Local Sidereal Time
10:19:38
Azimuth
Unknown
Elevation
Unknown
Doppler factor
Unknown
Orbital elements
Apogee altitude
630.525 km
Perigee altitude
629.445 km
Semi-major axis
7,008.122 km
Eccentricity
0.00008
Inclination
51.9009°
RAAN
121.3343°
Arg. of periapsis
77.7233°
True anomaly
282.37298°
Mean anomaly
282.3816°
Eccentric anomaly
282.37729°
Mean motion
3.69948 °/min
Orbital period
97.31 mins
BSTAR
0.00010055
Loading maneuver chart data...
Computing Atmospheric mass density...
Loading historical data...
Loading historical data...
Loading historical data...
Loading historical data...
Loading historical data...
Loading historical data...
Loading historical data...

Documentation

Showing up to 5 results
|